Temperature
16 15 14 14 13 13 13 12 12 12 12 12 13 13 13 13 13 13 13 13 14 14 14 14 15 15 15 16 16 16 16 16 16 16 16 17 17 17 18 18 18 18 18
17 15 15 14 13 13 13 12 12 12 12 12 12 12 12 12 12 13 13 13 13 13 14 14 14 15 15 15 15 16 16 16 16 16 16 16 17 17 17 17 18 18 18
16 15 15 14 13 13 12 12 12 12 12 12 12 12 12 12 12 12 13 13 13 13 13 13 14 14 14 15 15 15 15 16 16 16 16 16 16 17 17 18 18 18 18
16 15 14 14 13 13 12 12 12 12 12 12 12 12 12 12 12 12 12 12 13 13 13 13 14 14 14 14 14 15 15 15 15 15 15 16 16 16 17 17 18 18 18
15 15 14 14 13 13 12 12 12 12 11 11 11 12 11 12 12 12 12 12 12 13 13 13 13 14 14 14 14 14 15 15 15 15 15 15 15 16 16 16 17 17 17
15 15 14 13 13 13 12 12 12 11 11 11 11 11 11 11 11 11 12 12 12 12 12 13 13 13 14 14 14 14 14 14 15 15 15 15 15 15 16 16 16 17 17
16 15 14 14 13 13 12 12 12 11 11 11 11 11 11 11 11 11 11 12 12 12 12 13 13 13 13 14 14 14 14 14 14 14 15 15 15 15 15 15 16 16 16
16 15 14 14 13 13 12 12 12 11 11 11 11 11 11 11 11 11 11 11 12 12 12 12 13 13 13 13 13 14 14 14 14 14 14 14 15 15 15 15 15 15 16
16 15 14 14 13 13 12 12 12 12 11 11 11 11 11 11 11 11 11 11 11 11 12 12 12 13 13 13 13 13 13 14 14 14 14 14 14 15 15 15 15 15 15
16 15 14 14 13 13 12 12 12 11 11 11 11 11 10 10 10 10 11 11 11 11 11 12 12 12 13 13 13 13 13 13 14 14 14 14 14 14 14 14 14 14 15
16 15 15 14 13 13 13 12 12 12 11 11 11 10 10 10 10 10 10 11 11 11 11 11 12 12 12 12 13 13 13 13 13 13 13 14 14 14 14 14 14 14 14
16 15 15 14 14 13 13 12 12 12 11 11 11 10 10 10 10 10 10 10 10 10 11 11 11 11 12 12 12 12 13 13 13 13 13 13 13 14 14 14 14 14 14
16 15 15 14 14 13 13 13 12 12 11 11 11 11 11 10 10 10 10 10 10 10 11 11 11 11 11 12 12 12 12 12 12 13 13 13 13 13 13 14 14 14 14
16 16 15 15 14 14 13 13 12 12 11 11 11 10 10 10 10 10 10 10 10 10 10 10 11 11 11 11 12 12 12 12 12 12 12 13 13 13 13 13 13 13 14
16 16 15 15 15 14 14 13 12 12 11 11 11 10 10 10 10 10 10 10 10 10 10 10 11 11 11 11 11 12 12 12 12 12 12 12 13 13 13 13 13 13 13
17 16 16 15 15 15 14 13 13 12 12 11 11 10 10 10 10 10 10 10 10 10 10 10 10 11 11 11 11 11 11 12 12 12 12 12 12 12 13 13 13 13 13
17 17 16 16 15 15 14 14 13 12 12 11 11 11 10 10 10 10 10 10 10 10 10 10 10 10 11 11 11 11 11 11 11 12 12 12 12 12 12 12 13 13 13
17 17 16 16 15 15 14 14 13 13 12 12 11 11 10 10 10 10 10 10 10 10 10 10 10 10 10 11 11 11 11 11 11 11 11 11 12 12 12 12 12 12 13
17 17 16 16 15 15 14 14 13 13 12 12 11 11 11 10 10 10 10 10 10 10 10 10 10 10 10 11 11 11 11 11 11 11 11 11 11 12 12 12 12 12 12
17 17 16 16 15 15 14 14 14 13 13 12 12 11 11 11 11 10 10 10 10 10 10 10 10 10 10 11 11 11 11 11 11 11 11 11 11 12 12 12 12 12 12
17 17 16 16 15 15 14 14 14 14 13 13 12 12 11 11 11 11 11 10 10 10 10 10 10 10 11 11 11 11 11 11 11 11 11 11 11 11 12 12 12 12 12
17 17 16 16 15 15 15 14 14 14 13 13 13 12 12 12 11 11 11 11 11 10 10 10 10 10 11 11 11 11 11 11 11 11 11 11 11 11 11 11 12 12 12
17 17 16 16 15 15 15 15 14 14 14 14 13 13 12 12 12 12 11 11 11 11 11 11 11 10 10 11 11 11 11 11 11 11 11 11 11 11 11 11 11 11 11
17 17 17 16 16 15 15 15 15 14 14 14 14 13 13 12 12 12 12 11 11 11 11 11 11 11 10 10 11 11 11 11 11 11 11 11 11 11 11 11 11 11 11
17 17 17 16 16 16 15 15 15 15 14 14 14 14 13 13 13 13 13 12 12 12 11 11 11 11 11 11 11 11 11 11 11 11 11 11 11 11 11 11 11 11 11
17 17 17 16 16 16 15 15 15 15 15 14 14 14 14 14 13 13 13 13 13 13 12 12 12 12 11 11 11 11 11 11 11 11 10 10 11 11 11 11 11 11 11
Wind_Speed
6 7 8 9 9 10 11 11 11 11 9 8 8 7 7 7 6 6 6 7 7 8 7 7 7 6 7 7 8 7 8 6 6 5 5 6 9 10 8 9 9 11 11
7 7 8 9 9 10 11 11 11 11 10 8 8 6 7 7 6 6 6 7 7 6 6 7 7 7 7 8 8 8 7 6 6 5 4 4 6 8 10 9 9 11 10
7 8 8 9 9 10 10 10 11 10 10 10 7 7 6 5 5 6 6 6 6 6 6 6 7 7 7 7 8 8 9 7 7 7 5 4 6 5 8 11 11 11 9
6 7 8 9 9 9 10 10 11 11 10 10 8 9 7 7 7 7 6 6 6 6 5 6 6 6 6 7 8 8 8 8 7 7 6 5 2 3 5 7 10 12 11
5 6 7 8 8 8 8 9 10 10 10 10 9 9 8 7 7 7 7 7 5 6 6 5 5 6 6 7 8 8 8 8 9 7 6 6 5 5 4 5 7 9 10
4 5 5 6 7 7 7 8 9 9 9 10 9 9 9 9 9 8 7 6 5 5 6 6 5 6 6 7 7 8 9 9 10 9 8 7 6 7 6 6 5 6 7
4 4 6 6 7 7 7 8 8 9 9 10 9 10 10 9 8 8 7 7 6 6 7 6 6 5 5 6 6 7 8 9 10 10 9 9 10 7 7 6 5 5 4
4 4 5 6 6 7 7 7 8 8 9 9 9 9 9 7 7 8 7 7 6 6 7 7 6 6 6 6 5 6 7 7 9 10 10 9 9 9 8 7 7 6 5
4 4 5 5 5 6 6 7 7 8 8 8 9 9 10 9 9 9 8 7 7 7 8 7 7 6 6 5 4 4 5 6 7 9 9 8 8 8 8 7 7 7 7
4 4 4 5 5 5 5 6 6 7 7 7 8 7 9 9 9 8 9 9 9 9 9 8 7 7 6 5 4 4 4 5 6 6 8 8 7 7 7 8 7 7 7
4 4 4 4 4 4 4 5 5 6 6 7 8 8 8 8 8 8 9 9 9 9 9 8 8 7 7 6 4 4 4 4 5 6 7 8 8 7 7 7 7 7 7
4 4 4 4 4 4 4 4 5 5 5 6 7 8 8 8 9 9 9 9 9 9 9 9 8 8 7 6 5 5 5 4 4 4 5 7 6 8 7 7 8 7 7
5 5 4 4 4 4 4 4 4 4 4 5 6 7 8 8 9 9 9 9 9 9 9 9 9 8 7 7 6 5 5 4 3 3 3 4 6 7 6 7 7 6 6
6 5 5 4 4 4 3 3 3 3 3 4 6 7 7 8 8 8 8 8 9 9 9 8 8 8 7 7 6 5 4 3 3 2 1 1 2 4 6 6 7 6 6
7 6 6 5 4 3 3 3 2 2 3 4 5 6 7 7 7 8 8 8 8 8 8 8 8 8 8 9 9 7 5 4 3 3 3 3 2 2 2 3 5 6 6
7 6 6 5 4 4 3 2 2 2 2 3 4 5 6 6 7 7 8 8 8 8 8 9 8 8 8 12 12 9 5 5 4 3 3 2 2 2 1 1 1 3 5
6 6 6 5 4 3 2 2 2 2 2 3 3 4 5 5 6 7 7 7 7 7 8 8 8 8 9 12 12 11 6 4 4 4 4 3 3 1 1 3 4 3 2
6 6 6 5 4 3 2 2 2 3 3 3 3 3 4 5 5 6 7 7 7 6 7 7 7 7 8 12 12 12 6 4 4 4 4 3 2 3 3 0 1 2 2
5 5 5 4 4 3 3 3 3 3 3 3 3 3 3 4 5 5 6 6 6 6 6 6 6 6 7 10 12 11 5 4 4 3 4 4 3 4 4 1 2 2 3
5 5 5 5 5 4 4 4 4 4 4 3 3 3 3 4 4 5 5 5 5 5 5 5 5 6 6 8 10 11 4 4 3 3 3 6 6 5 5 1 1 2 2
5 5 6 6 5 4 5 6 5 4 4 4 4 4 4 4 4 5 4 5 5 5 5 5 4 4 5 5 8 10 5 4 3 3 3 4 6 5 4 3 1 2 1
4 6 6 6 6 6 6 7 6 5 4 5 5 6 5 5 4 5 5 5 5 5 5 5 4 3 3 4 6 8 7 7 3 3 3 4 5 4 3 2 4 2 1
4 5 6 6 6 7 7 8 6 5 6 6 7 7 7 6 6 6 6 5 5 5 5 4 4 3 3 2 1 3 4 6 3 3 5 5 4 2 1 4 2 2 2
3 4 5 6 7 7 7 8 7 6 7 8 8 8 8 7 7 5 6 6 5 5 5 5 5 4 3 3 3 3 2 2 2 1 1 1 1 1 2 2 2 1 1
2 4 5 6 7 6 7 7 7 8 9 10 9 9 8 8 8 7 7 7 7 5 6 5 5 5 5 2 4 6 5 5 4 5 3 2 2 2 2 2 1 1 2
2 3 4 6 7 7 7 7 7 8 10 10 9 8 8 7 8 8 8 10 11 8 10 11 9 7 6 4 5 7 7 7 7 6 4 3 3 3 3 3 3 3 3
Wind_Direction
346 357 353 352 350 352 350 350 348 349 347 343 337 334 331 324 321 314 316 305 296 287 276 270 261 251 246 243 240 237 231 222 212 214 229 239 242 238 226 230 231 224 218
336 351 349 353 352 353 352 350 350 349 347 344 333 323 320 317 321 318 318 317 310 297 281 273 268 256 251 246 240 233 232 220 203 203 204 227 230 232 230 224 229 231 213
330 341 345 348 349 353 352 349 349 347 349 345 337 331 330 323 330 330 327 324 321 308 293 284 278 269 257 250 244 236 232 227 212 209 203 207 220 219 220 221 220 226 222
321 332 338 343 346 350 348 348 351 351 351 347 345 344 339 335 330 328 326 327 329 326 312 293 281 273 265 257 250 239 237 232 222 216 220 225 215 214 216 216 221 219 219
316 328 338 341 344 347 346 347 351 355 355 351 349 343 344 336 332 331 333 332 336 334 329 314 297 286 275 266 259 251 241 234 227 215 208 215 220 231 225 215 215 217 219
306 320 335 338 343 346 347 348 353 358 358 353 351 350 347 343 341 342 339 338 336 335 335 325 311 299 288 277 267 255 244 239 234 226 215 208 208 212 217 224 219 217 217
299 318 331 338 341 343 345 345 352 355 358 356 355 355 350 345 346 345 342 340 338 338 336 329 319 311 300 286 274 260 249 241 235 231 226 222 223 214 212 218 222 222 216
290 308 322 328 332 336 339 342 346 350 354 353 355 357 355 350 350 348 344 341 339 336 335 330 324 317 308 297 283 268 256 246 237 234 231 229 225 218 213 213 211 214 217
281 298 313 321 328 332 337 340 341 347 353 352 352 356 357 356 353 352 351 348 344 340 341 337 335 328 318 310 299 281 269 260 246 237 233 231 228 221 215 212 211 211 219
270 289 304 309 318 327 331 336 341 345 351 352 354 355 354 355 354 353 355 352 350 351 347 346 342 338 333 325 316 302 288 268 257 245 238 233 229 220 212 212 214 218 224
265 283 298 303 307 314 324 333 341 349 353 353 354 353 355 354 354 356 355 351 351 353 352 350 348 348 345 340 332 319 307 290 270 251 237 233 228 220 211 206 208 212 216
257 270 284 290 295 306 321 333 342 351 355 352 353 355 354 356 359 359 355 353 355 356 355 355 356 355 351 348 347 339 331 319 298 268 241 232 225 219 213 209 208 207 211
247 258 267 278 286 295 305 320 333 344 352 353 353 356 360 1 0 359 357 355 357 357 360 2 3 358 354 357 354 350 346 346 330 299 256 239 227 220 213 211 206 202 204
241 250 259 269 275 279 287 301 320 334 342 350 353 358 1 360 358 1 358 357 358 359 3 5 3 2 2 2 360 0 1 4 3 348 324 274 239 233 220 209 204 199 200
237 242 251 265 270 270 272 277 293 312 329 342 352 358 358 359 358 359 359 358 359 1 6 7 7 9 10 8 1 357 358 6 12 12 26 27 18 357 278 230 206 196 195
235 239 245 252 262 264 268 264 267 286 310 332 349 355 351 359 359 359 359 1 1 3 8 7 9 11 16 7 2 353 356 2 9 10 17 41 64 79 159 207 230 217 205
233 235 239 240 251 264 271 259 264 273 287 316 338 345 351 356 360 1 2 0 2 4 5 6 7 10 17 10 6 356 349 9 15 11 14 24 33 5 107 160 179 172 183
228 227 230 229 236 236 230 233 234 254 278 302 318 331 336 345 352 356 358 356 359 0 359 0 2 5 14 10 4 345 348 12 17 12 7 10 21 17 5 55 161 156 156
225 222 224 224 228 228 227 227 235 249 264 280 296 307 320 331 337 344 348 352 351 352 351 356 354 356 10 12 360 344 2 11 21 23 21 10 21 30 343 323 142 135 118
218 215 213 220 224 221 220 236 251 257 260 264 275 286 301 310 317 329 334 340 339 340 340 347 348 351 359 12 360 345 355 8 17 25 37 38 21 17 346 312 131 130 124
210 210 213 220 226 221 221 240 254 263 262 254 261 268 274 285 298 309 313 316 325 329 334 337 339 345 355 7 9 354 354 357 1 13 23 32 22 12 1 341 52 78 108
208 212 218 223 223 223 230 245 255 261 251 245 251 258 265 272 279 285 295 303 308 311 318 326 336 338 344 0 3 357 359 343 351 1 13 34 17 10 6 36 80 91 203
219 217 226 233 229 225 234 252 256 248 242 244 250 256 260 261 265 274 281 288 290 299 310 315 321 329 333 327 277 316 341 342 343 11 19 9 357 329 122 98 116 195 178
235 229 232 239 241 237 236 250 258 248 246 250 254 254 257 259 259 260 268 276 284 290 296 304 306 310 305 315 333 329 319 285 298 332 96 193 348 360 62 147 184 196 140
260 241 245 253 259 257 250 253 255 251 253 256 256 256 255 258 262 258 255 263 265 267 275 289 292 296 297 357 354 321 323 329 339 324 286 252 234 217 198 193 174 172 165
334 290 274 273 275 276 273 270 262 256 259 265 266 262 258 253 254 260 256 228 237 233 230 243 262 270 261 276 275 284 295 302 305 292 268 251 242 239 230 217 200 193 184
Height
1562 1560 1558 1555 1552 1549 1546 1543 1539 1536 1532 1529 1526 1523 1521 1519 1517 1515 1513 1512 1511 1511 1511 1511 1512 1512 1513 1514 1516 1517 1519 1520 1523 1526 1527 1529 1532 1534 1536 1538 1540 1542 1544
1560 1559 1557 1555 1552 1549 1545 1542 1538 1535 1531 1528 1525 1522 1519 1517 1514 1512 1511 1509 1508 1507 1507 1508 1508 1508 1509 1510 1511 1513 1514 1516 1518 1520 1523 1525 1528 1528 1531 1533 1535 1538 1540
1559 1558 1556 1554 1551 1548 1545 1541 1538 1534 1530 1527 1524 1521 1518 1515 1513 1511 1508 1507 1506 1505 1504 1504 1504 1505 1505 1506 1507 1508 1510 1511 1513 1516 1519 1520 1521 1524 1526 1529 1531 1534 1536
1558 1557 1555 1553 1550 1548 1544 1541 1537 1534 1530 1526 1523 1520 1517 1514 1511 1509 1507 1505 1504 1502 1501 1501 1501 1501 1501 1502 1503 1504 1505 1507 1508 1510 1513 1515 1517 1520 1521 1524 1526 1528 1531
1556 1555 1554 1552 1549 1547 1543 1540 1537 1533 1529 1526 1522 1519 1516 1513 1510 1508 1505 1504 1502 1500 1499 1499 1498 1498 1498 1498 1499 1500 1501 1502 1504 1505 1507 1510 1512 1515 1517 1518 1521 1523 1526
1555 1554 1553 1551 1549 1546 1543 1540 1537 1533 1529 1526 1522 1519 1516 1512 1510 1507 1504 1503 1501 1499 1498 1497 1496 1495 1495 1495 1495 1496 1496 1497 1499 1501 1503 1504 1506 1508 1511 1513 1515 1518 1520
1553 1552 1551 1550 1548 1545 1542 1540 1536 1533 1529 1526 1522 1519 1515 1512 1509 1506 1504 1502 1500 1498 1496 1495 1494 1493 1492 1492 1492 1492 1492 1493 1494 1496 1497 1499 1501 1504 1506 1508 1511 1513 1515
1552 1551 1550 1549 1547 1544 1542 1539 1536 1533 1529 1526 1523 1519 1515 1512 1509 1506 1504 1502 1499 1497 1495 1493 1492 1491 1490 1489 1488 1488 1489 1489 1490 1491 1493 1494 1496 1498 1500 1503 1506 1508 1511
1550 1550 1549 1548 1546 1544 1541 1538 1536 1533 1530 1526 1523 1519 1516 1512 1509 1507 1504 1502 1499 1497 1494 1492 1491 1489 1488 1487 1486 1486 1485 1485 1486 1487 1488 1489 1491 1493 1495 1498 1500 1504 1505
1549 1548 1547 1546 1545 1543 1540 1538 1535 1533 1530 1526 1523 1519 1516 1513 1510 1507 1504 1501 1499 1496 1494 1492 1490 1488 1486 1485 1484 1483 1483 1482 1482 1483 1484 1485 1487 1488 1490 1493 1495 1498 1501
1547 1547 1546 1545 1543 1542 1540 1537 1535 1532 1529 1526 1523 1520 1517 1514 1511 1508 1504 1502 1499 1496 1494 1491 1489 1487 1485 1484 1483 1481 1481 1480 1480 1480 1480 1481 1483 1484 1486 1488 1490 1492 1496
1545 1545 1544 1543 1542 1541 1539 1537 1535 1532 1529 1526 1523 1520 1517 1515 1512 1508 1505 1502 1499 1497 1494 1491 1489 1487 1485 1483 1482 1480 1479 1478 1477 1477 1477 1478 1479 1480 1482 1484 1486 1488 1490
1543 1543 1542 1542 1541 1539 1538 1536 1534 1531 1529 1526 1523 1521 1518 1515 1512 1509 1506 1503 1500 1497 1495 1492 1489 1487 1484 1483 1481 1479 1478 1476 1475 1475 1475 1475 1476 1477 1479 1480 1482 1484 1486
1540 1540 1540 1540 1539 1538 1536 1535 1533 1531 1528 1526 1523 1521 1518 1515 1512 1510 1506 1504 1501 1498 1495 1493 1490 1487 1485 1483 1481 1479 1478 1476 1475 1474 1473 1473 1474 1475 1477 1478 1479 1481 1483
1538 1538 1538 1538 1537 1536 1535 1533 1532 1530 1528 1526 1524 1521 1518 1515 1513 1510 1507 1504 1501 1499 1496 1494 1491 1488 1486 1483 1482 1480 1479 1477 1476 1474 1473 1472 1472 1473 1474 1476 1477 1478 1480
1535 1536 1536 1536 1535 1535 1534 1532 1531 1529 1527 1526 1524 1521 1518 1516 1513 1510 1507 1505 1502 1500 1497 1494 1492 1489 1487 1484 1482 1480 1479 1478 1476 1475 1474 1473 1472 1473 1473 1474 1475 1476 1478
1533 1533 1534 1534 1533 1533 1532 1531 1530 1528 1527 1525 1523 1521 1519 1516 1513 1511 1508 1505 1503 1500 1497 1495 1493 1490 1488 1485 1483 1481 1480 1479 1477 1476 1475 1474 1473 1473 1473 1473 1473 1474 1476
1530 1531 1531 1531 1532 1531 1530 1529 1528 1527 1526 1525 1523 1520 1518 1516 1514 1511 1508 1506 1504 1501 1498 1496 1493 1491 1488 1486 1484 1482 1481 1479 1478 1476 1476 1475 1474 1473 1473 1473 1473 1474 1475
1528 1529 1529 1530 1530 1530 1529 1528 1528 1526 1525 1524 1522 1520 1518 1516 1514 1511 1509 1506 1504 1501 1499 1496 1494 1492 1490 1487 1485 1483 1482 1480 1478 1477 1476 1475 1474 1473 1473 1473 1473 1473 1474
1526 1526 1527 1527 1528 1528 1527 1527 1527 1526 1524 1523 1521 1519 1517 1515 1513 1511 1509 1506 1504 1501 1499 1496 1494 1492 1490 1488 1486 1483 1483 1481 1479 1478 1476 1475 1474 1473 1473 1474 1473 1473 1474
1524 1524 1525 1525 1526 1526 1525 1525 1525 1524 1523 1521 1519 1518 1516 1515 1513 1511 1508 1506 1504 1501 1499 1497 1495 1492 1490 1488 1486 1484 1483 1481 1480 1479 1477 1476 1475 1474 1473 1473 1474 1473 1474
1522 1522 1523 1523 1523 1523 1523 1523 1523 1522 1521 1519 1518 1516 1515 1514 1512 1510 1508 1506 1504 1502 1500 1498 1496 1493 1490 1488 1486 1485 1483 1482 1481 1479 1478 1476 1475 1474 1474 1474 1474 1474 1475
1520 1520 1521 1521 1521 1521 1521 1521 1521 1519 1518 1517 1516 1515 1514 1512 1510 1509 1507 1505 1503 1502 1500 1498 1496 1493 1491 1488 1486 1485 1483 1482 1481 1479 1478 1477 1476 1475 1475 1474 1474 1475 1475
1518 1518 1518 1519 1519 1519 1518 1518 1518 1517 1516 1515 1514 1513 1512 1510 1509 1507 1505 1504 1502 1501 1499 1497 1495 1493 1491 1489 1486 1485 1484 1482 1481 1480 1478 1477 1476 1476 1475 1475 1475 1475 1475
1516 1516 1516 1516 1516 1516 1516 1515 1515 1514 1513 1512 1511 1510 1509 1507 1506 1504 1503 1501 1500 1498 1496 1495 1493 1491 1490 1488 1485 1484 1483 1482 1481 1479 1479 1478 1477 1477 1476 1476 1475 1475 1475
1514 1514 1513 1513 1513 1513 1513 1512 1511 1510 1510 1509 1509 1507 1506 1504 1503 1501 1500 1498 1496 1495 1493 1492 1490 1488 1487 1485 1484 1483 1482 1480 1479 1479 1478 1477 1477 1476 1476 1475 1475 1475 1475